History for Ft Lauderdale, FL

Sunday, January 15, 2017 — View Current Conditions

Jump to Data:

Date:
Airport Code:
Recently Viewed Airport Codes: KFLL
Daily Summary
  Actual Average Record
Temperature
Mean Temperature 75°F 69°F  
Max Temperature 78°F 76°F 84°F (1972)
Min Temperature 72°F 61°F 31°F (1948)
Degree Days
Heating Degree Days 0 2  
Month to date heating degree days 11 30  
Since 1 July heating degree days 13 62  
Cooling Degree Days 10 5  
Month to date cooling degree days 115 84  
Year to date cooling degree days 115 84  
Growing Degree Days 24 (Base 50)    
Moisture
Dew Point 63°F    
Average Humidity 66    
Maximum Humidity 68    
Minimum Humidity 64    
Precipitation
Precipitation 0.01 in 0.08 in 2.42 in (1974)
Month to date precipitation 0.65 1.23  
Year to date precipitation 0.65 1.23  
Snow
Snow 0.00 in in in ()
Month to date snowfall 0.0  
Since 1 July snowfall 0.0  
Snow Depth 0.00 in    
Sea Level Pressure
Sea Level Pressure 30.22 in    
Wind
Wind Speed 13 mph (ENE)    
Max Wind Speed 21 mph    
Max Gust Speed 27 mph    
Visibility 10 miles    
Events Rain    
T = Trace of Precipitation, MM = Missing Value Source: NWS Daily Summary

Show full METARS

(help) - Comma Delimited File

Hourly Observations

Time(EST) Temperature Dew Point Humidity Sea Level Pressure Visibility Wind Direction Wind Speed Gust Speed Precipitation Events Conditions
12:53 AM 73.9°F 60.1°F 62% 30.26 in 10.0 miles East 16.1 mph 21.9 mph N/A   Mostly Cloudy
1:53 AM 73.9°F 61.0°F 64% 30.25 in 10.0 miles East 19.6 mph - N/A   Mostly Cloudy
2:53 AM 73.0°F 62.1°F 68% 30.23 in 10.0 miles ENE 15.0 mph - N/A   Mostly Cloudy
3:53 AM 73.0°F 63.0°F 71% 30.22 in 10.0 miles ENE 10.4 mph - N/A   Scattered Clouds
4:53 AM 73.0°F 63.0°F 71% 30.22 in 10.0 miles ENE 11.5 mph - 0.00 in   Mostly Cloudy
5:53 AM 73.0°F 63.0°F 71% 30.22 in 10.0 miles East 13.8 mph 18.4 mph 0.00 in   Mostly Cloudy
6:53 AM 73.0°F 62.1°F 68% 30.23 in 10.0 miles East 13.8 mph - 0.00 in   Mostly Cloudy
7:53 AM 73.0°F 62.1°F 68% 30.25 in 9.0 miles ENE 10.4 mph - N/A   Overcast
8:29 AM 73.9°F 62.1°F 66% 30.26 in 10.0 miles East 12.7 mph - N/A   Overcast
8:53 AM 73.9°F 63.0°F 68% 30.26 in 10.0 miles East 11.5 mph - N/A   Overcast
9:53 AM 72.0°F 64.9°F 78% 30.28 in 9.0 miles ESE 12.7 mph - 0.00 in Rain Light Rain
10:53 AM 75.0°F 64.0°F 69% 30.27 in 9.0 miles East 12.7 mph - 0.00 in   Overcast
11:53 AM 73.0°F 64.9°F 76% 30.24 in 10.0 miles East 10.4 mph - 0.01 in Rain Light Rain
12:53 PM 75.9°F 64.0°F 67% 30.21 in 10.0 miles ENE 13.8 mph - 0.00 in   Mostly Cloudy
1:53 PM 77.0°F 64.0°F 64% 30.19 in 10.0 miles ENE 10.4 mph - N/A   Mostly Cloudy
2:53 PM 75.9°F 62.1°F 62% 30.17 in 10.0 miles East 12.7 mph - N/A   Mostly Cloudy
3:53 PM 75.0°F 63.0°F 66% 30.17 in 10.0 miles ENE 13.8 mph - N/A   Mostly Cloudy
4:53 PM 73.9°F 63.0°F 68% 30.18 in 10.0 miles ENE 13.8 mph - N/A   Overcast
5:53 PM 73.9°F 63.0°F 68% 30.17 in 10.0 miles ENE 13.8 mph 21.9 mph 0.00 in   Mostly Cloudy
6:53 PM 73.9°F 63.0°F 68% 30.18 in 10.0 miles ENE 10.4 mph - N/A   Overcast
7:53 PM 73.9°F 63.0°F 68% 30.20 in 10.0 miles East 12.7 mph - N/A   Mostly Cloudy
8:53 PM 73.0°F 64.0°F 73% 30.20 in 10.0 miles ENE 13.8 mph 23.0 mph 0.00 in Rain Light Rain
9:53 PM 73.9°F 63.0°F 68% 30.20 in 10.0 miles ENE 17.3 mph 21.9 mph 0.00 in   Overcast
10:53 PM 73.9°F 63.0°F 68% 30.20 in 10.0 miles ENE 16.1 mph 26.5 mph N/A   Overcast
11:53 PM 73.0°F 64.0°F 73% 30.20 in 10.0 miles East 13.8 mph - 0.00 in Rain Light Rain